| time (UTC) | temp F | wind direction | speed knots | gust knots | rain 1hr in | rain 24hr in | rain mn in | humidity % | barometer mb |
| 20260506102357 | 56 | 67 | 3.5 | 4.3 | 0.00 | 0.00 | 0.00 | 77 | 1012.0 |
| 20260506101356 | 56 | 93 | 0.9 | 1.7 | 0.00 | 0.00 | 0.00 | 77 | 1011.6 |
| 20260506100352 | 56 | 78 | 1.7 | 1.7 | 0.00 | 0.00 | 0.00 | 77 | 1011.4 |
| 20260506095347 | 56 | 0 | 0.9 | 1.7 | 0.00 | 0.00 | 0.00 | 77 | 1011.4 |
| 20260506094343 | 57 | 86 | 1.7 | 2.6 | 0.00 | 0.00 | 0.00 | 77 | 1011.5 |
| 20260506093343 | 57 | 17 | 2.6 | 2.6 | 0.00 | 0.00 | 0.00 | 76 | 1011.3 |
| 20260506092339 | 57 | 47 | 1.7 | 2.6 | 0.00 | 0.00 | 0.00 | 76 | 1011.4 |
| 20260506091339 | 57 | 22 | 1.7 | 2.6 | 0.00 | 0.00 | 0.00 | 76 | 1010.9 |
| 20260506090340 | 57 | 86 | 1.7 | 2.6 | 0.00 | 0.00 | 0.00 | 76 | 1011.0 |
| 20260506085338 | 57 | 287 | 0.9 | 1.7 | 0.00 | 0.00 | 0.00 | 77 | 1010.7 |
| 20260506084338 | 57 | 158 | 0.0 | 0.9 | 0.00 | 0.00 | 0.00 | 77 | 1010.8 |
| 20260506083337 | 57 | 173 | 0.9 | 0.9 | 0.00 | 0.00 | 0.00 | 77 | 1010.9 |
| 20260506082337 | 57 | 36 | 2.6 | 4.3 | 0.00 | 0.00 | 0.00 | 76 | 1010.5 |
| 20260506081337 | 57 | 122 | 1.7 | 1.7 | 0.00 | 0.00 | 0.00 | 76 | 1010.6 |
| 20260506080337 | 57 | 149 | 0.9 | 1.7 | 0.00 | 0.00 | 0.00 | 77 | 1010.5 |
| 20260506073327 | 58 | 63 | 3.5 | 4.3 | 0.00 | 0.00 | 0.00 | 77 | 1010.5 |
| 20260506072327 | 58 | 118 | 0.9 | 0.9 | 0.00 | 0.00 | 0.00 | 77 | 1010.6 |
| 20260506071323 | 58 | 20 | 6.1 | 7.0 | 0.00 | 0.00 | 0.00 | 77 | 1010.8 |
| 20260506070322 | 58 | 74 | 2.6 | 2.6 | 0.00 | 0.00 | 0.00 | 77 | 1010.7 |
| 20260506062306 | 59 | 48 | 3.5 | 5.2 | 0.00 | 0.00 | 0.00 | 78 | 1010.6 |
| 20260506061304 | 60 | 147 | 0.9 | 1.7 | 0.00 | 0.00 | 0.00 | 79 | 1010.4 |
| 20260506060300 | 60 | 124 | 0.9 | 1.7 | 0.00 | 0.00 | 0.00 | 79 | 1010.7 |
| 20260506051249 | 62 | 351 | 2.6 | 4.3 | 0.00 | 0.00 | 0.00 | 80 | 1010.4 |
| 20260506050244 | 63 | 90 | 1.7 | 2.6 | 0.00 | 0.00 | 0.00 | 80 | 1009.9 |
| 20260506044243 | 63 | 16 | 4.3 | 9.6 | 0.00 | 0.00 | 0.00 | 80 | 1010.3 |
| 20260506043238 | 64 | 20 | 3.5 | 7.0 | 0.00 | 0.00 | 0.00 | 80 | 1010.0 |
| 20260506042235 | 64 | 203 | 1.7 | 2.6 | 0.00 | 0.00 | 0.00 | 80 | 1009.8 |
| 20260506041230 | 65 | 89 | 1.7 | 2.6 | 0.00 | 0.00 | 0.00 | 79 | 1009.5 |
| 20260506040230 | 65 | 103 | 0.9 | 1.7 | 0.00 | 0.00 | 0.00 | 79 | 1009.8 |
| 20260506035230 | 66 | 113 | 0.0 | 0.0 | 0.00 | 0.00 | 0.00 | 79 | 1009.7 |
| 20260506034229 | 67 | 183 | 1.7 | 2.6 | 0.00 | 0.00 | 0.00 | 79 | 1009.4 |
| 20260506033230 | 68 | 166 | 0.9 | 1.7 | 0.00 | 0.00 | 0.00 | 78 | 1009.3 |
| 20260506032229 | 68 | 154 | 3.5 | 5.2 | 0.00 | 0.00 | 0.00 | 78 | 1009.2 |
| 20260506031229 | 69 | 119 | 2.6 | 4.3 | 0.00 | 0.00 | 0.00 | 77 | 1008.9 |
| 20260506030224 | 69 | 210 | 2.6 | 4.3 | 0.00 | 0.00 | 0.00 | 77 | 1008.9 |
| 20260506025223 | 70 | 50 | 1.7 | 2.6 | 0.00 | 0.00 | 0.00 | 76 | 1008.7 |
| 20260506024223 | 70 | 129 | 0.9 | 0.9 | 0.00 | 0.00 | 0.00 | 76 | 1008.2 |
| 20260506023222 | 71 | 334 | 2.6 | 4.3 | 0.00 | 0.00 | 0.00 | 76 | 1007.8 |
| 20260506022217 | 72 | 38 | 1.7 | 2.6 | 0.00 | 0.00 | 0.00 | 76 | 1007.7 |
| 20260506021217 | 73 | 26 | 1.7 | 2.6 | 0.00 | 0.00 | 0.00 | 75 | 1007.0 |
| 20260506020212 | 73 | 158 | 0.0 | 0.9 | 0.00 | 0.00 | 0.00 | 74 | 1007.3 |
| 20260506015213 | 74 | 236 | 0.9 | 1.7 | 0.00 | 0.00 | 0.00 | 74 | 1007.1 |
| 20260506014211 | 74 | 323 | 4.3 | 5.2 | 0.00 | 0.00 | 0.00 | 74 | 1007.0 |
| 20260506013206 | 74 | 190 | 2.6 | 2.6 | 0.00 | 0.00 | 0.00 | 72 | 1006.9 |
| 20260506012205 | 74 | 97 | 1.7 | 2.6 | 0.00 | 0.00 | 0.00 | 72 | 1006.9 |
| 20260506011204 | 75 | 306 | 3.5 | 4.3 | 0.00 | 0.00 | 0.00 | 72 | 1006.5 |
| 20260506010159 | 75 | 136 | 1.7 | 2.6 | 0.00 | 0.00 | 0.00 | 72 | 1006.1 |
| 20260506005159 | 76 | 24 | 2.6 | 4.3 | 0.00 | 0.00 | 0.00 | 71 | 1006.4 |
| 20260506004159 | 77 | 200 | 1.7 | 2.6 | 0.00 | 0.00 | 0.00 | 71 | 1006.1 |
| 20260506003157 | 78 | 119 | 0.9 | 1.7 | 0.00 | 0.00 | 0.00 | 69 | 1006.1 |
| 20260506002154 | 79 | 322 | 5.2 | 6.1 | 0.00 | 0.00 | 0.00 | 68 | 1006.3 |
| 20260506001154 | 80 | 38 | 3.5 | 6.1 | 0.00 | 0.00 | 0.00 | 67 | 1005.8 |
| 20260506000148 | 80 | 336 | 4.3 | 6.1 | 0.00 | 0.00 | 0.00 | 65 | 1005.3 |
| 20260505235149 | 82 | 61 | 2.6 | 2.6 | 0.00 | 0.00 | 0.00 | 62 | 1005.0 |
| 20260505234148 | 82 | 249 | 3.5 | 4.3 | 0.00 | 0.00 | 0.00 | 65 | 1005.3 |
| 20260505233148 | 83 | 212 | 2.6 | 4.3 | 0.00 | 0.00 | 0.00 | 73 | 1004.8 |
| 20260505232143 | 84 | 183 | 4.3 | 6.1 | 0.00 | 0.00 | 0.00 | 72 | 1004.8 |
| 20260505231139 | 84 | 146 | 3.5 | 5.2 | 0.00 | 0.00 | 0.00 | 72 | 1004.6 |
| 20260505230138 | 84 | 138 | 1.7 | 2.6 | 0.00 | 0.00 | 0.00 | 71 | 1004.4 |
| 20260505225137 | 85 | 155 | 4.3 | 6.1 | 0.00 | 0.00 | 0.00 | 71 | 1004.6 |
| 20260505224137 | 85 | 191 | 4.3 | 6.1 | 0.00 | 0.00 | 0.00 | 69 | 1004.6 |
| 20260505223136 | 86 | 175 | 4.3 | 7.8 | 0.00 | 0.00 | 0.00 | 68 | 1004.2 |
| 20260505222135 | 86 | 164 | 4.3 | 5.2 | 0.00 | 0.00 | 0.00 | 68 | 1004.4 |
| 20260505221134 | 88 | 154 | 1.7 | 2.6 | 0.00 | 0.00 | 0.00 | 65 | 1004.3 |
| 20260505220129 | 87 | 162 | 4.3 | 5.2 | 0.00 | 0.00 | 0.00 | 65 | 1004.4 |
| 20260505215125 | 87 | 171 | 1.7 | 1.7 | 0.00 | 0.00 | 0.00 | 67 | 1004.5 |
| 20260505214125 | 88 | 167 | 3.5 | 4.3 | 0.00 | 0.00 | 0.00 | 62 | 1004.6 |
| 20260505213124 | 87 | 219 | 5.2 | 6.1 | 0.00 | 0.00 | 0.00 | 58 | 1004.6 |
| 20260505212124 | 88 | 168 | 2.6 | 2.6 | 0.00 | 0.00 | 0.00 | 64 | 1004.8 |
| 20260505211124 | 88 | 209 | 2.6 | 4.3 | 0.00 | 0.00 | 0.00 | 62 | 1004.6 |
| 20260505210123 | 88 | 199 | 5.2 | 6.1 | 0.00 | 0.00 | 0.00 | 61 | 1004.9 |
| 20260505205119 | 87 | 220 | 6.1 | 7.0 | 0.00 | 0.00 | 0.00 | 63 | 1004.8 |
| 20260505204113 | 87 | 165 | 1.7 | 1.7 | 0.00 | 0.00 | 0.00 | 65 | 1005.4 |
| 20260505203113 | 86 | 217 | 6.1 | 7.0 | 0.00 | 0.00 | 0.00 | 66 | 1005.3 |
| 20260505202110 | 86 | 229 | 7.0 | 8.7 | 0.00 | 0.00 | 0.00 | 64 | 1005.3 |
| 20260505201105 | 86 | 205 | 5.2 | 6.1 | 0.00 | 0.00 | 0.00 | 68 | 1005.4 |
| 20260505200105 | 86 | 214 | 4.3 | 8.7 | 0.00 | 0.00 | 0.00 | 67 | 1005.4 |
| 20260505195105 | 85 | 171 | 3.5 | 5.2 | 0.00 | 0.00 | 0.00 | 69 | 1005.4 |
| 20260505194103 | 84 | 206 | 6.1 | 7.0 | 0.00 | 0.00 | 0.00 | 68 | 1005.6 |
| 20260505193104 | 85 | 231 | 2.6 | 4.3 | 0.00 | 0.00 | 0.00 | 68 | 1005.6 |
| 20260505192059 | 84 | 226 | 3.5 | 4.3 | 0.00 | 0.00 | 0.00 | 70 | 1005.4 |
| 20260505191055 | 83 | 211 | 6.1 | 7.8 | 0.00 | 0.00 | 0.00 | 69 | 1005.5 |
| 20260505190052 | 83 | 211 | 5.2 | 8.7 | 0.00 | 0.00 | 0.00 | 69 | 1005.6 |
| 20260505185051 | 83 | 204 | 4.3 | 7.8 | 0.00 | 0.00 | 0.00 | 70 | 1005.6 |
| 20260505184050 | 82 | 165 | 4.3 | 7.8 | 0.00 | 0.00 | 0.00 | 71 | 1005.7 |
| 20260505183045 | 82 | 187 | 4.3 | 7.0 | 0.00 | 0.00 | 0.00 | 72 | 1005.6 |
| 20260505182043 | 82 | 211 | 7.0 | 8.7 | 0.00 | 0.00 | 0.00 | 70 | 1006.0 |
| 20260505181044 | 82 | 186 | 7.0 | 7.8 | 0.00 | 0.00 | 0.00 | 70 | 1005.8 |
| 20260505180043 | 83 | 157 | 3.5 | 5.2 | 0.00 | 0.00 | 0.00 | 70 | 1005.8 |
| 20260505175040 | 81 | 191 | 2.6 | 4.3 | 0.00 | 0.00 | 0.00 | 73 | 1005.8 |
| 20260505174039 | 81 | 184 | 4.3 | 6.1 | 0.00 | 0.00 | 0.00 | 72 | 1005.9 |
| 20260505173039 | 81 | 196 | 5.2 | 7.0 | 0.00 | 0.00 | 0.00 | 72 | 1006.0 |
| 20260505172038 | 81 | 170 | 5.2 | 7.0 | 0.00 | 0.00 | 0.00 | 73 | 1006.0 |
| 20260505171036 | 81 | 215 | 2.6 | 2.6 | 0.00 | 0.00 | 0.00 | 73 | 1006.2 |
| 20260505170035 | 81 | 200 | 7.8 | 9.6 | 0.00 | 0.00 | 0.00 | 71 | 1006.1 |
| 20260505165032 | 80 | 232 | 8.7 | 9.6 | 0.00 | 0.00 | 0.00 | 73 | 1006.1 |
| 20260505164032 | 80 | 174 | 6.1 | 8.7 | 0.00 | 0.00 | 0.00 | 74 | 1006.1 |
| 20260505163027 | 79 | 222 | 5.2 | 7.8 | 0.00 | 0.00 | 0.00 | 76 | 1005.9 |
| 20260505162023 | 79 | 164 | 7.0 | 11.3 | 0.00 | 0.00 | 0.00 | 76 | 1006.0 |
| 20260505161023 | 78 | 173 | 6.1 | 9.6 | 0.00 | 0.00 | 0.00 | 76 | 1005.7 |
| 20260505153015 | 77 | 123 | 3.5 | 6.1 | 0.00 | 0.00 | 0.00 | 79 | 1005.7 |
| 20260505152013 | 76 | 160 | 2.6 | 4.3 | 0.00 | 0.00 | 0.00 | 80 | 1005.8 |
| 20260505151011 | 75 | 190 | 8.7 | 9.6 | 0.00 | 0.00 | 0.00 | 81 | 1006.0 |
| 20260505124949 | 71 | 196 | 3.5 | 5.2 | 0.00 | 0.00 | 0.00 | 86 | 1005.8 |
| 20260505123947 | 71 | 165 | 4.3 | 5.2 | 0.00 | 0.00 | 0.00 | 86 | 1005.6 |
| 20260505122946 | 71 | 190 | 3.5 | 6.1 | 0.00 | 0.00 | 0.00 | 86 | 1005.3 |
| 20260505121946 | 71 | 174 | 5.2 | 8.7 | 0.00 | 0.00 | 0.00 | 86 | 1005.5 |
| 20260505120944 | 71 | 202 | 4.3 | 7.0 | 0.00 | 0.00 | 0.00 | 86 | 1004.9 |
| 20260505115940 | 71 | 196 | 6.1 | 8.7 | 0.00 | 0.00 | 0.00 | 86 | 1005.0 |
| 20260505114935 | 71 | 232 | 1.7 | 4.3 | 0.00 | 0.00 | 0.00 | 86 | 1005.0 |
| 20260505113934 | 71 | 188 | 4.3 | 5.2 | 0.00 | 0.00 | 0.00 | 86 | 1005.0 |
| 20260505112932 | 71 | 159 | 7.0 | 8.7 | 0.00 | 0.00 | 0.00 | 86 | 1004.9 |
| 20260505111931 | 71 | 193 | 2.6 | 4.3 | 0.00 | 0.00 | 0.00 | 86 | 1005.1 |
| 20260505110929 | 71 | 157 | 6.1 | 7.8 | 0.00 | 0.00 | 0.00 | 86 | 1004.8 |